Date,TemperatureHighF,TemperatureAvgF,TemperatureLowF,DewpointHighF,DewpointAvgF,DewpointLowF,HumidityHigh,HumidityAvg,HumidityLow,PressureMaxIn,PressureMinIn,WindSpeedMaxMPH,WindSpeedAvgMPH,GustSpeedMaxMPH,PrecipitationSumIn
2013-5-1,72.0,65.5,60.0,63.0,60.8,58.0,95,85,66,30.15,30.05,7,4,15,0.01
2013-5-2,74.0,67.6,63.0,65.0,63.4,60.0,94,87,74,30.14,30.08,10,5,21,0.01
2013-5-3,69.0,62.8,60.0,62.0,58.5,53.0,97,86,70,30.09,29.98,9,5,25,0.01
2013-5-4,66.0,61.5,60.0,61.0,57.7,54.0,94,88,76,29.99,29.91,9,5,23,0.01
2013-5-5,71.0,67.1,62.0,67.0,64.6,61.0,99,92,80,29.83,29.76,9,3,20,0.02
2013-5-6,74.0,64.3,56.0,64.0,58.3,54.0,100,83,53,29.91,29.81,6,1,14,0.07
2013-5-7,72.0,61.0,53.0,63.0,56.9,52.0,99,87,68,29.96,29.88,3,0,10,0.04
2013-5-8,79.0,65.3,51.0,63.0,57.9,50.0,99,80,54,30.03,29.94,6,1,14,0.01
2013-5-9,85.0,71.7,61.0,68.0,63.2,60.0,98,77,47,30.08,30.00,4,1,12,0.00
2013-5-10,86.0,71.4,61.0,71.0,61.0,-99.9,98,76,50,30.09,30.01,7,1,13,0.00
2013-5-11,79.0,74.3,72.0,70.0,68.5,67.0,89,82,67,29.89,29.86,2,1,8,0.01
2013-5-12,86.0,74.2,63.0,69.0,62.1,-99.9,94,71,38,29.98,29.84,2,1,9,0.01
2013-5-13,75.0,64.6,55.0,56.0,46.0,41.0,82,53,30,30.12,29.97,7,2,17,0.00
2013-5-14,76.0,62.5,49.0,55.0,51.1,47.0,96,70,40,30.24,30.11,5,2,14,0.00
2013-5-15,86.0,70.2,57.0,64.0,58.9,54.0,98,70,44,30.16,30.00,5,1,14,0.00
2013-5-16,88.0,68.4,65.0,70.0,41.0,-99.9,90,71,46,30.06,29.98,2,1,9,0.00
2013-5-17,87.0,73.1,65.0,73.0,59.5,-99.9,99,79,54,30.10,30.02,6,1,15,0.00
2013-5-18,85.0,74.9,66.0,72.0,68.4,65.0,99,81,57,30.14,30.06,6,1,16,0.00
2013-5-19,85.0,75.9,70.0,73.0,70.1,66.0,96,83,64,30.11,30.04,6,2,14,0.03
2013-5-20,83.0,76.0,71.0,75.0,71.4,69.0,96,86,70,30.09,30.01,6,2,20,0.03
2013-5-21,77.0,71.9,67.0,75.0,70.3,66.0,99,95,86,30.08,29.97,6,1,15,6.07
2013-5-22,84.0,74.0,65.0,74.0,69.5,64.0,99,87,62,30.01,29.91,7,1,15,0.03
2013-5-23,87.0,75.6,68.0,75.0,70.8,67.0,99,86,58,29.95,29.83,4,1,14,0.00
2013-5-24,85.0,75.2,67.0,70.0,59.6,41.0,95,62,29,30.14,29.84,7,2,16,0.00
2013-5-25,80.0,66.3,57.0,57.0,47.9,40.0,84,54,27,30.28,30.14,9,3,15,0.00
2013-5-26,84.0,69.7,56.0,65.0,59.7,55.0,98,73,46,30.24,30.13,6,1,14,0.00
2013-5-27,85.0,72.0,60.0,68.0,63.5,59.0,99,77,51,30.23,30.15,6,1,12,0.00
2013-5-28,84.0,73.8,64.0,71.0,65.4,63.0,98,77,53,30.23,30.16,7,2,14,0.00
2013-5-29,81.0,70.6,65.0,70.0,66.0,64.0,98,86,63,30.24,30.14,5,1,12,0.00
2013-5-30,86.0,75.5,66.0,73.0,69.6,65.0,99,83,61,30.23,30.15,7,2,14,0.00
2013-5-31,86.0,76.8,69.0,74.0,71.1,68.0,99,84,62,30.21,30.12,6,2,16,0.00